Change the Weather History Date:

Sunday, July 7, 2013

  Actual Average Record
Temperature  
Mean Temperature 75 °F -  
Max Temperature 87 °F 80 °F 89 °F (2007)
Min Temperature 63 °F 67 °F 33 °F (1997)
Cooling Degree Days 10    
Growing Degree Days 25 (Base 50)    
Moisture  
Dew Point 66 °F    
Average Humidity 76    
Maximum Humidity 100    
Minimum Humidity 41    
Precipitation  
Precipitation 0.00 in 0.04 in - ()
Sea Level Pressure  
Sea Level Pressure 30.04 in    
Wind  
Wind Speed 9 mph ()    
Max Wind Speed 21 mph    
Max Gust Speed -    
Visibility 9.2 miles    
Events Fog    
Averages and records for this station are not official NWS values.
T = Trace of Precipitation, MM = Missing Value Source: Averaged Metar Reports

Daily Weather History Graph

Daily Weather History Graph

Search for Another Location

Airport or City:

Trip Planner

Search our weather history database for the weather conditions in past years. The results will help you decide how hot, cold, wet, or windy it might be!

Date:

Astronomy

Jul. 07, 2013 Rise Set
Actual Time 6:35 AM EAT 6:20 PM EAT
Civil Twilight 6:13 AM EAT 6:42 PM EAT
Nautical Twilight 5:47 AM EAT 7:08 PM EAT
Astronomical Twilight 5:21 AM EAT 7:34 PM EAT
Moon 5:41 AM EAT (7/7) 5:44 PM EAT (7/7)
Length of Visible Light 12h 29m
Length of Day
11h 44m
Waning Crescent, 1% of the Moon is Illuminated
Jul 7
Waning Crescent
Jul 8
New
Jul 16
First Quarter
Jul 22
Full
Jul 29
Last Quarter

Hourly Weather History & Observations

Time (EAT) Temp. Heat Index Dew Point Humidity Pressure Visibility Wind Dir Wind Speed Gust Speed Precip Events Conditions
12:00 AM 69.8 °F - 66.2 °F 88% 30.04 in 6.2 mi SW 8.1 mph - N/A   Clear
1:00 AM 68.0 °F - 66.2 °F 94% 30.04 in 6.2 mi SSW 5.8 mph - N/A   Clear
2:00 AM 66.2 °F - 66.2 °F 100% 30.01 in 6.2 mi SSW 6.9 mph - N/A   Clear
3:00 AM 66 °F - 65 °F 98% 30.02 in 19 mi South 5.8 mph - -   Clear
3:00 AM 66.2 °F - 66.2 °F 100% 30.01 in 6.2 mi South 5.8 mph - N/A   Clear
4:00 AM 66.2 °F - 64.4 °F 94% 30.01 in 6.2 mi South 4.6 mph - N/A   Clear
5:00 AM 64.4 °F - 64.4 °F 100% 30.01 in 6.2 mi SSW 5.8 mph - N/A   Partly Cloudy
6:00 AM 64.4 °F - 64.4 °F 100% 30.04 in 6.2 mi South 5.8 mph - N/A   Partly Cloudy
7:00 AM 62.6 °F - 62.6 °F 100% 30.06 in 1.2 mi SW 4.6 mph - N/A Fog Fog
9:00 AM 73 °F - 69 °F 82% 30.11 in 19 mi SSW 20.7 mph - -   Partly Cloudy
9:00 AM 73.4 °F - 68.0 °F 83% 30.09 in 6.2 mi SSW 9.2 mph - N/A   Partly Cloudy
11:00 AM 82.4 °F 86.3 °F 69.8 °F 66% 30.09 in 6.2 mi ESE 16.1 mph - N/A   Mostly Cloudy
12:00 PM 84 °F - 67 °F 48% 30.09 in 19 mi SSE 17.3 mph - -   Mostly Cloudy
12:00 PM 84.2 °F 87.3 °F 68.0 °F 58% 30.06 in 6.2 mi SSE 17.3 mph - N/A   Mostly Cloudy
1:00 PM 86.0 °F 88.2 °F 66.2 °F 51% - 6.2 mi SE 15.0 mph - N/A   Mostly Cloudy
3:00 PM 85 °F - 65 °F 41% 30.02 in 19 mi South 17.3 mph - -   Partly Cloudy
3:00 PM 86.0 °F 87.3 °F 64.4 °F 48% 30.01 in 6.2 mi South 17.3 mph - N/A   Scattered Clouds
4:00 PM 86.0 °F 87.3 °F 64.4 °F 48% 30.01 in 6.2 mi SSE 17.3 mph - N/A   Partly Cloudy
5:00 PM 84.2 °F 86.6 °F 66.2 °F 55% 30.01 in 6.2 mi SE 17.3 mph - N/A   Partly Cloudy
6:00 PM 81 °F - 67 °F 53% 30.02 in 19 mi East 11.5 mph - -   Scattered Clouds
6:00 PM 80.6 °F 82.7 °F 66.2 °F 61% 30.01 in 6.2 mi SSE 11.5 mph - N/A   Partly Cloudy
7:00 PM 77.0 °F - 68.0 °F 74% 30.04 in 6.2 mi SSE 9.2 mph - N/A   Partly Cloudy
9:00 PM 73 °F - 70 °F 86% 30.06 in 19 mi SSW 5.8 mph - -   Scattered Clouds
9:00 PM 73.4 °F - 69.8 °F 88% 30.06 in 6.2 mi SSW 5.8 mph - N/A   Partly Cloudy